Find Starlink 34259

NORAD ID: 65368 Int'l Des: 2025-190 Owner: SPXS Country: US Constellation: starlink operational
LEOCIRCULAR

Live-Position

3D-Globus wird geladen...

Über Starlink 34259

Beschreibung wird geladen...

Nächste Überflüge

Passes for default location (London). Set your location on the main map for personalized predictions.

Höhenverlauf

Loading altitude history...

Zweizeiliger Elementsatz

1 65368U 25190T 26104.87439808 .00010447 00000-0 36432-3 0 9992
2 65368 53.1608 0.2184 0001342 96.1724 263.9430 15.30202616 35299
Epoch: 14. Apr. 2026 • Age: 5 hours

Aktueller Status

Höhe 479.8 km
Geschwindigkeit 7.63 km/s
Subsatellitenpunkt 48.47°N, 113.87°W
Startdatum 28. Aug. 2025
Alter 0.6 years
Typ internet

Technische Details

Klassifizierung Payload
Masse 575.00 kg
Trockenmasse 530.00 kg
Gesamtmasse 575.00 kg
Länge 0.30 m
Durchmesser 4.10 m
Spannweite 29.00 m
Form Box + pan
Hersteller SPXS
Bus-Typ Starlink V2MO
Phasenstatus In Orbit
Besitzer/Staat SPXS/US

Most Searched